Location: Val-d'Or
(48.1170°N, 77.7670°W)
Time: 12:08:35
(UTC-04:00)

Envisat - Visible Passes

Search period start: 16 July 2018 00:00
Search period end: 26 July 2018 00:00
Orbit: 764 x 766 km, 98.2° (Epoch: 16 July)

Date Brightness Start Highest point End Pass type
(mag) Time Alt. Az. Time Alt. Az. Time Alt. Az.
16 Jul 5.9 22:01:44 10° WSW 22:03:25 12° W 22:05:07 10° WNW visible
19 Jul 5.7 21:49:20 10° WSW 21:52:06 15° W 21:54:53 10° NW visible
22 Jul 5.6 21:37:21 10° SW 21:40:47 18° W 21:44:15 10° NW visible
24 Jul 6.1 22:05:52 10° W 22:06:44 10° W 22:07:36 10° WNW visible
25 Jul 5.5 21:25:34 10° SW 21:29:29 22° W 21:33:27 10° NW visible
